This is the latest recevied weather packets stored in our database for station/object 4S6DRJ-13. If no packets are shown the sender has not sent any weather packets the latest 10 day(s).
| Time | Temp. | Humidity | Pressure | Rain* | Wind** | Luminosity | Snow |
|---|---|---|---|---|---|---|---|
| 1787941310 | 27.78° C | 86% | 1010.8 hPa | 0 mm | 0.89 m/s, 167° | 0 W/m² | - |
| 1787941249 | 27.78° C | 86% | 1011.1 hPa | 0 mm | 0.45 m/s, 208° | 0 W/m² | - |
| 1787941188 | 27.78° C | 86% | 1011 hPa | 0 mm | 0.89 m/s, 204° | 0 W/m² | - |
| 1787941128 | 27.78° C | 86% | 1010.7 hPa | 0 mm | 0.45 m/s, 229° | 0 W/m² | - |
| 1787941066 | 27.78° C | 86% | 1011 hPa | 0 mm | 0.89 m/s, 191° | 0 W/m² | - |
| 1787941005 | 27.78° C | 86% | 1010.9 hPa | 0 mm | 1.79 m/s, 212° | 0 W/m² | - |
| 1787940945 | 27.78° C | 86% | 1010.9 hPa | 0 mm | 0.45 m/s, 248° | 0 W/m² | - |
| 1787940884 | 27.78° C | 86% | 1010.7 hPa | 0 mm | 1.34 m/s, 216° | 0 W/m² | - |
| 1787940823 | 27.78° C | 86% | 1010.9 hPa | 0 mm | 1.34 m/s, 237° | 0 W/m² | - |
| 1787940762 | 27.78° C | 86% | 1010.9 hPa | 0 mm | 0.45 m/s, 261° | 0 W/m² | - |
| 1787940701 | 27.78° C | 85% | 1011.1 hPa | 0 mm | 0.45 m/s, 211° | 0 W/m² | - |
| 1787940640 | 27.78° C | 85% | 1011 hPa | 0 mm | 0.45 m/s, 223° | 0 W/m² | - |
| 1787940579 | 27.78° C | 85% | 1011 hPa | 0 mm | 0 m/s | 0 W/m² | - |
| 1787940517 | 27.78° C | 85% | 1011.1 hPa | 0 mm | 0.45 m/s, 255° | 0 W/m² | - |
| 1787940457 | 27.78° C | 85% | 1011 hPa | 0 mm | 0.89 m/s, 206° | 0 W/m² | - |
| 1787940395 | 27.78° C | 85% | 1011 hPa | 0 mm | 0.89 m/s, 122° | 0 W/m² | - |
| 1787940334 | 27.78° C | 85% | 1010.9 hPa | 0 mm | 1.79 m/s, 229° | 0 W/m² | - |
| 1787940274 | 27.78° C | 85% | 1011.1 hPa | 0 mm | 0.89 m/s, 182° | 0 W/m² | - |
| 1787940213 | 27.78° C | 85% | 1011 hPa | 0 mm | 0.89 m/s, 245° | 0 W/m² | - |
| 1787940152 | 27.78° C | 85% | 1011.1 hPa | 0 mm | 0 m/s | 0 W/m² | - |
| 1787940091 | 27.78° C | 85% | 1011 hPa | 0 mm | 0 m/s | 0 W/m² | - |
| 1787940030 | 27.78° C | 85% | 1011.1 hPa | 0 mm | 1.34 m/s, 212° | 0 W/m² | - |
| 1787939969 | 27.78° C | 85% | 1011.1 hPa | 0 mm | 1.34 m/s, 223° | 0 W/m² | - |
| 1787939911 | 27.78° C | 85% | 1011.1 hPa | 0 mm | 0.45 m/s, 261° | 0 W/m² | - |
| 1787939847 | 27.78° C | 85% | 1011.2 hPa | 0 mm | 0.89 m/s, 255° | 0 W/m² | - |
* Rain latest hour (hover to see other rain measurements)
** Current wind speed in m/s (hover to see current wind gust speed)